BEIDOU-3 G1 (C59)

Last updated on Fri Dec 19 2025 00:03:27 GMT+0000 (Coordinated Universal Time)

1 43683U 18085A 25352.65301522 -.00000255 00000+0 00000+0 0 9998 2 43683 2.6220 102.7934 0001633 48.1042 311.7383 1.00269184 26258
UTC large
Height (km)
Speed (km/s)
/
Latitude / Longitude
Inclination (degrees)
Orbital Period (minutes)
Azimuth
Elevation
Range (km)
Doppler Factor

Next 0 passes for location: London (51.5072 / 0.1276)

Sorry there are no passes over London.